STARLINK-4743, 53787

Orbit data source: Space-Track

STARLINK-4743, 53787 is a payload satellite owned by SpaceX/Seattle (US) in LEO that was launched on Sun, 11 Sep 2022 UTC via an FALCON 9 launch vehicle from the Air Force Eastern Test Range (AFETR). Payload-class satellites include a variety of spacecraft equipped with specific instruments for various scientific and technological missions. These include communications satellites like Starlink; space stations such as the ISS; scientific satellites like the Hubble; Earth observation satellites from companies like Planet Labs, Umbra, and HawkEye 360; GPS; miniature CubeSats for education and research; and military/defense satellites.

Loading next visibility...
Identifier
53787, 2022-111Q
Orbit
LEO
Country
Flag of USUS
Related business
Manufacturer
SpaceX/Seattle
Mission
Operational Commercial Communications
Bus & Motor
STARLINK, Unknown motor
Mass
305 kg wet, ~290 kg dry
Launch date (UTC)
2022-09-11 (4 years ago)
Launch vehicle
FALCON 9
Launch site
Air Force Eastern Test Range (AFETR)
Object type
Payload
Rocket body
Debris
Shape & HBR
Box + 1 Pan, 10.1 m
Radar Cross Section
13.562 m², Large (>1 m²)

Expand to show TLE details & history
Last TLE update: 10 hours ago

TLE from 10 hours ago
0 STARLINK-4743
1 53787U 22111Q   26221.65686286  .00000268  00000-0  20383-4 0  9993
2 53787  53.1608 301.0857 0001147  77.0329 283.0800 15.31709408216873
Epoch: 2026-08-09T15:45Z
TLE epoch observation values (Epoch: 2026-08-09T15:45:52.951Z)
Latitude
-0.00004°
Longitude
106.46433°
Altitude
471.435 km
Speed
7.632 km/s
True Right ascension
20h 04m 20s
True Declination
0° 00' 00"
Sunlit
Object was in full shadow at epoch
Visualization orbit readout
Latitude
Unknown
Longitude
Unknown
Altitude
Unknown
Speed
Unknown
Apparent Right ascension
Unknown
Apparent Declination
Unknown
Sunlit
N/A
Visualization observer readout
Local Sidereal Time
15:45:25
Azimuth
Unknown
Elevation
Unknown
Doppler factor
Unknown
Orbital elements
Apogee altitude
471.754 km
Perigee altitude
470.183 km
Semi-major axis
6,849.105 km
Eccentricity
0.00011
Inclination
53.1608°
RAAN
301.0857°
Arg. of periapsis
77.0329°
True anomaly
283.0672°
Mean anomaly
283.08°
Eccentric anomaly
283.0736°
Mean motion
3.82906 °/min
Orbital period
94.02 mins
BSTAR
0.000020383
Loading maneuver chart data...
Computing Atmospheric mass density...
Loading historical data...
Loading historical data...
Loading historical data...
Loading historical data...
Loading historical data...
Loading historical data...
Loading historical data...

Documentation

Showing up to 5 results
|